Tracking 29892 objects as of 21-Nov-2024
HD Live streaming from Space Station
objects crossing your sky now

DELTA 1 DEB

Track DELTA 1 DEB now!
10-day predictions


NORAD ID: 42557
Int'l Code: 1972-058JQ
Perigee: 792.5 km
Apogee: 810.6 km
Inclination: 98.7 °
Period: 100.8 minutes
Semi major axis: 7172 km
RCS: Unknown
Launch date: July 23, 1972
Source: United States (US)
Launch site: AIR FORCE WESTERN TEST RANGE (AFWTR)

Note: This is SATELLITE DEBRIS
Your satellite tracking list
Your tracking list is empty




NASA's NSSDC Master Catalog

Two Line Element Set (TLE):
1 42557U 72058JQ  24326.02024396  .00000202  00000-0  96948-4 0  9992
2 42557  98.6512  41.4457 0012607 146.8545 337.5716 14.29196547573588
Source of the keplerian elements: AFSPC